OBJECT F, 67751

Orbit data source: Space-Track

You're viewing an Uncataloged Satellite

Recently launched and/or uncataloged satellites may have evolving metadata. Metadata may include but not limited to: Owner, Maufacturer, Bus, Motor, and Mission.

OBJECT F, 67751 is a Chinese satellite in SSO that was launched on Thu, 12 Feb 2026 UTC via a JIELONG-3 launch vehicle from the South China Sea Launch Area (SCSLA). Unknown objects in Earth's orbit typically refer to objects detected orbiting the Earth but have not yet been identified or cataloged. These objects could be anything from previously untracked satellites, spent rocket stages, debris from satellite collisions, or even natural meteoroids temporarily captured by Earth's gravity.

Loading next visibility...
Identifier
67751, 2026-027F
Orbit
SSO
Country
Flag of CNCN / PRC
Related business
None
Manufacturer
Unknown
Mission
Operational spacecraft
Bus & Motor
Unknown
Mass
Unknown
Launch date (UTC)
2026-02-12 (1 month ago)
Launch vehicle
JIELONG-3
Launch site
South China Sea Launch Area (SCSLA)
Object type
Unknown
Shape & HBR
Unknown
Radar Cross Section
RCS unknown

Expand to show TLE details & history
Last TLE update: 14 hours ago

TLE from 14 hours ago
0 OBJECT F
1 67751U 26027F   26071.79210972  .00003881  00000-0  19460-3 0  9999
2 67751  97.4916 200.8018 0009240 190.5872 169.5169 15.17898571  4339
Epoch: 2026-03-12T19:00Z
TLE epoch observation values (Epoch: 2026-03-12T19:00:38.279Z)
Latitude
-0.00001°
Longitude
105.20539°
Altitude
521.54 km
Speed
7.599 km/s
True Right ascension
13h 23m 12s
True Declination
0° 00' 00"
Sunlit
Object was in full shadow at epoch
Visualization orbit readout
Latitude
Unknown
Longitude
Unknown
Altitude
Unknown
Speed
Unknown
Apparent Right ascension
Unknown
Apparent Declination
Unknown
Sunlit
N/A
Visualization observer readout
Local Sidereal Time
13:07:51
Azimuth
Unknown
Elevation
Unknown
Doppler factor
Unknown
Orbital elements
Apogee altitude
515.529 km
Perigee altitude
502.801 km
Semi-major axis
6,887.302 km
Eccentricity
0.00092
Inclination
97.4916°
RAAN
200.8018°
Arg. of periapsis
190.5872°
True anomaly
169.53614°
Mean anomaly
169.5169°
Eccentric anomaly
169.52652°
Mean motion
3.79725 °/min
Orbital period
94.81 mins
BSTAR
0.0001946
Loading maneuver chart data...
Computing Atmospheric mass density...
Loading historical data...
Loading historical data...
Loading historical data...
Loading historical data...
Loading historical data...
Loading historical data...
Loading historical data...

Documentation

Showing up to 5 results
|